Regional Weather Roundup
Issued by NWS Spokane, WA

Home | Current Version | Previous Version | Text Only | Print | Product List | Glossary On
Versions: 1 2 3 4 5 6 7 8 9 10 11 12 13 14 15 16 17 18 19 20 21 22 23 24 25 26 27 28 29 30 31 32 33 34 35 36 37 38 39 40 41 42 43 44 45 46 47 48 49 50
000
NZUS01 KOTX 012110
RWROTX
EASTERN WASHINGTON/NORTHERN IDAHO ROUNDUP
NATIONAL WEATHER SERVICE, SPOKANE WA
200 PM PDT MON SEP 01 2014

Note: "fair" indicated few or no clouds below 12,000 feet with no
significant weather and/or obstructions to visibility.

...NORTHEAST WASHINGTON AND NORTHERN IDAHO PANHANDLE...

CITY           SKY/WX    TMP DP  RH WIND       PRES   REMARKS
SPOKANE INTL   MOSUNNY   71  38  29 SW12G25   30.02F
SPOKANE DOWNTO MOSUNNY   73  37  27 SW8G20    30.02F
COEUR D ALENE  PTSUNNY   72  41  33 W16       30.02S
DEER PARK      SUNNY     71  39  31 SW13      30.01F
SANDPOINT      PTSUNNY   70  41  35 SW12G17   30.00F

...SOUTHEAST WASHINGTON AND SOUTHERN IDAHO PANHANDLE...

CITY           SKY/WX    TMP DP  RH WIND       PRES   REMARKS
WALLA WALLA    SUNNY     77  44  30 S9        30.02F
PULLMAN/MOSCOW MOSUNNY   69  40  34 VRB3      30.07F
LEWISTON       SUNNY     76  41  28 N6        30.01F
LOWELL           N/A     78  42  27 VRB6      29.99F

...COLUMBIA BASIN...

CITY           SKY/WX    TMP DP  RH WIND       PRES   REMARKS
EPHRATA        SUNNY     76  39  26 S8        29.98F
MOSES LAKE     SUNNY     77  39  25 S10       30.00F
TRI CITIES     SUNNY     77  45  32 E5        30.00F
HERMISTON      SUNNY     78  45  30 W9        29.99F
PENDLETON      SUNNY     76  42  29 VRB7      30.02F

...EAST SLOPES CASCADES...

CITY           SKY/WX    TMP DP  RH WIND       PRES   REMARKS
THE DALLES     SUNNY     82  49  31 N16       29.97F
YAKIMA         SUNNY     77  42  28 NE6       30.00F
ELLENSBURG     SUNNY     78  45  30 NW12G23   30.00F
WENATCHEE      SUNNY     78  40  25 E6        29.97F
OMAK           SUNNY     77  39  25 VRB7      29.95F

...SOUTHERN BRITISH COLUMBIA...

CITY           SKY/WX    TMP DP  RH WIND       PRES   REMARKS
PENTICTON      PTSUNNY   73  46  38 S7        29.92F
CRANBROOK      PTSUNNY   64  37  36 NW8       29.95R

...WESTERN MONTANA...

CITY           SKY/WX    TMP DP  RH WIND       PRES   REMARKS
MISSOULA       PTSUNNY   67  37  33 VRB6      30.03F

...NEIGHBORING CITIES...

CITY           SKY/WX    TMP DP  RH WIND       PRES   REMARKS
SEATTLE        MOSUNNY   70  52  52 W6        30.08F
CALGARY        CLOUDY    68  32  26 W17       29.79S



USA.gov is the U.S. government's official web portal to all federal, state and local government web resources and services.